Regional Weather Roundup
Issued by NWS

Home | Current Version | Previous Version | Text Only | Print | Product List | Glossary On
Versions: 1 2 3 4 5 6 7 8 9 10 11 12 13 14 15 16 17 18 19 20 21 22 23 24 25 26 27 28 29 30 31 32 33 34 35 36 37 38 39 40 41 42 43 44 45 46 47 48 49 50
000
ASUS43 KDMX 250406
RWRIA

WEATHER ROUNDUP FOR IOWA
NATIONAL WEATHER SERVICE DES MOINES IA
1100 PM CDT WED MAY 24 2017

NOTE: "FAIR" INDICATES FEW OR NO CLOUDS BELOW 12,000 FEET WITH NO
SIGNIFICANT WEATHER AND/OR OBSTRUCTIONS TO VISIBILITY.

* - THESE STATIONS ARE NOT NWS STATIONS...THUS NOT UNDER NWS
QUALITY CONTROL.  THEY ALSO DO NOT REPORT WEATHER SUCH
AS PRECIPITATION OR FOG.

IAZ001>003-012>014-020>022-031>034-043>046-250500-
   NORTHWEST IOWA

CITY           SKY/WX    TMP DP  RH WIND       PRES   REMARKS
CARROLL *      PTCLDY    52  50  93 CALM      29.70R
CHEROKEE *     CLEAR     49  47  91 E3        29.69S
DENISON *      CLEAR     52  46  82 E5        29.71R
LE MARS *      CLEAR     55  45  67 SE7       29.67S
ORANGE CITY *  CLEAR     54  48  82 E5        29.68R
SHELDON *      CLEAR     50  45  81 E7        29.67S
SIOUX CITY     CLEAR     51  46  83 SE7       29.66S
SPENCER        CLEAR     49  44  83 E5        29.69S
STORM LAKE *   CLEAR     54  45  71 E9        29.69S
$$

IAZ055>058-069>071-079>083-090>094-250500-
   SOUTHWEST IOWA

CITY           SKY/WX    TMP DP  RH WIND       PRES   REMARKS
ATLANTIC *     CLEAR     54  48  82 CALM      29.70R
AUDUBON *      CLEAR     48  45  87 CALM      29.71R
CLARINDA *     CLEAR     50  50 100 CALM      29.73R
COUNCIL BLFS * CLEAR     54  46  76 SE3       29.69S
CRESTON *      CLEAR     52  50  93 CALM      29.72R
HARLAN  *      CLEAR     54  46  76 CALM      29.73R
LAMONI         CLEAR     52  48  86 CALM      29.70R
RED OAK *      MOCLDY    57  50  77 S5        29.70R
SHENANDOAH *   CLEAR     55  48  76 SE5       29.70R
$$

IAZ047>049-059>061-072>074-084-250500-
   CENTRAL IOWA

CITY           SKY/WX    TMP DP  RH WIND       PRES   REMARKS
AMES           CLEAR     52  50  93 CALM      29.70R
ANKENY *       CLEAR     48  48 100 CALM      29.70S FOG
BOONE *        CLEAR     52  50  93 CALM      29.69R
CHARITON *     CLEAR     52  48  87 NW5       29.70R
DES MOINES     CLEAR     55  49  80 CALM      29.69S
GRINNELL*      PTCLDY    53  47  82 NE6       29.70F
KNOXVILLE *    CLEAR     54  48  82 CALM      29.68S
MARSHALLTOWN   CLEAR     52  49  89 E5        29.69S
NEWTON *       CLEAR     54  48  82 NE5       29.69R
PELLA *        CLEAR     52  47  84 CALM      29.70S
PERRY *          N/A     55  52  90 CALM      29.70R
$$

IAZ004>006-015-016-023>025-035-036-250500-
   NORTH CENTRAL IOWA

CITY           SKY/WX    TMP DP  RH WIND       PRES   REMARKS
ALGONA *       CLEAR     54  50  87 CALM      29.71R
CLARION *      CLEAR     54  50  87 E3        29.70R
ESTHERVILLE    CLEAR     49  48  97 CALM      29.70R
FORT DODGE *   CLEAR     50  46  87 E3        29.71R
MASON CITY     CLOUDY    52  48  86 NE3       29.71S
FOREST CITY *  CLOUDY    54  41  62 CALM      29.70S
WEBSTER CITY * CLEAR     54  48  82 E3        29.68S
IOWA FALLS *     N/A     52  49  87 CALM      29.71S
$$

IAZ007>011-017>019-026>030-037>042-050>054-066-250500-
   NORTHEAST IOWA

CITY           SKY/WX    TMP DP  RH WIND       PRES   REMARKS
CEDAR RAPIDS   CLEAR     51  50  96 N8        29.67R
CHARLES CITY * MOCLDY    52  52 100 CALM      29.71S
CLINTON *      CLOUDY    56  52  86 N10       29.65S
DECORAH *      CLEAR     50  48  93 N3        29.70S
DUBUQUE        CLOUDY    54  50  86 N7        29.67S
MONTICELLO *   CLEAR     54  50  87 N5        29.68R
OELWEIN *      CLEAR     50  50 100 NE6       29.70S
WATERLOO       CLEAR     50  47  89 NW5       29.69S
$$

IAZ064-065-067-068-078-250500-
   EAST CENTRAL IOWA

CITY           SKY/WX    TMP DP  RH WIND       PRES   REMARKS
DAVENPORT      CLOUDY    56  51  84 N10       29.67R
IOWA CITY      PTCLDY    57  49  74 N8        29.68S
MT. PLEASANT * CLOUDY    56  50  79 N8        29.67S
MUSCATINE *    CLOUDY    57  50  77 NW3       29.67S
QUAD CITIES    CLOUDY    58  50  75 N8        29.64R
$$

IAZ062-063-075>077-085>089-095>099-250500-
   SOUTHEAST IOWA

CITY           SKY/WX    TMP DP  RH WIND       PRES   REMARKS
BURLINGTON     PTCLDY    56  52  86 N8        29.65R
FAIRFIELD *    CLEAR     52  48  87 NW8       29.67S
FORT MADISON * CLOUDY    57  52  82 N8        29.66F
KEOKUK *       CLOUDY    55  52  88 N3        29.65S
OSKALOOSA *      N/A     51  47  88 N5        29.69S
CENTERVILLE *    N/A     50  48  93 CALM      29.70S
OTTUMWA        CLEAR     50  47  89 N5        29.68R
WASHINGTON *   CLOUDY    57  52  82 N8        29.68S
$$

ABBREVIATIONS USED IN REMARKS
   TC - TEMPERATURES IN CELSIUS
  WCI - WIND CHILL INDEX
   HX - HEAT INDEX
  VSB - VISIBILITY
$$




USA.gov is the U.S. government's official web portal to all federal, state and local government web resources and services.